{"data":{"norad_id":56909,"intl_designator":"2023-083AK","name":"STARLINK-5999","alt_names":[],"object_type":"PAYLOAD","status":"ACTIVE","operator":null,"country":"US","launch_date":"2023-06-12","launch_site_code":"AFETR","launch_vehicle":null,"mission":null,"orbit_class":"UNKNOWN","rcs_meters":null,"size_class":null,"mass_kg":null,"dimensions":null,"purposes":["comms"],"wikipedia_slug":null,"has_3d_model":false,"image_url":null,"decayed_at":null,"tle_current":{"epoch":"2026-05-24T23:56:53.943648Z","epoch_age_seconds":65411,"freshness":"FRESH","line1":"1 56909U 23083AK  26144.99784657  .00000621  00000+0  32086-4 0  9998","line2":"2 56909  43.0071   0.1506 0001872 254.5595 105.5050 15.27577828163571","mean_motion":15.27577828,"eccentricity":0.0001872,"inclination_deg":43.0071,"raan_deg":0.1506,"arg_perigee_deg":254.5595,"mean_anomaly_deg":105.505,"bstar":3.2086e-5,"rev_number":16357,"period_min":94.266882747659,"perigee_km":481.77118454205,"apogee_km":484.34001505141,"semimajor_km":6861.1925997967,"source":"CELESTRAK","updated_at":"2026-05-25T13:38:18.203334Z"}}}